Home > Weather > Hoyerswerda > Past weeks

Flag for Germany Weather for the Past 2 Weeks in Hoyerswerda, Saxony, Germany

Now
41 °F

Clear.


Feels Like: 33 °F
Forecast: 42 / 51 °F
Wind: 16 mph from South

Location: Dresden-Klotzsche

Current Time: Feb 7, 2016 at 6:43:38 PM

Latest Report: Feb 7, 2016 at 6:20 PM


Visibility: 10 mi

Pressure: 29.65 "Hg

Humidity: 76%

Dew point: 34 °F

Location of HoyerswerdaLocation

Historic Weather in Hoyerswerda — Graph

°F

Hoyerswerda Temperature Yesterday

Maximum temperature yesterday: 52 °F (at 1:50 PM)
Minimum temperature yesterday: 37 °F (at 5:20 AM)
Average temperature yesterday: 45 °F

High & Low Weather Summary for the Past Weeks

 TemperatureHumidityPressure
High55 °F (Jan 27, 1:50 PM)100% (Jan 23, 6:50 PM)30.51 "Hg (Jan 23, 6:50 PM)
Low32 °F (Jan 29, 2:50 AM)46% (Jan 29, 11:50 AM)29.62 "Hg (Feb 7, 2:20 PM)
Average43 °F78%30.06 "Hg
* Reported Jan 23 5:20 PM — Feb 7 5:20 PM, Hoyerswerda, Weather by CustomWeather, © 2016

Note: Actual official high and low records may vary slightly from our data, if they occured in-between our weather recording intervals... More about our weather records

Advertising

Hoyerswerda Weather History for the Previous 24 Hours

 ConditionsComfort  
Time TempWeatherWind HumidityBarometerVisibility
5:20 PM
Sun, Feb 7
41 °FClear.21 mph76%29.62 "Hg10 mi
4:20 PM41 °FSunny.21 mph76%29.62 "Hg10 mi
3:50 PM41 °FSunny.18 mph76%29.62 "Hg10 mi
3:20 PM41 °FSunny.21 mph76%29.65 "Hg10 mi
2:50 PM43 °FSunny.17 mph71%29.65 "Hg10 mi
2:20 PM43 °FSunny.16 mph71%29.62 "Hg10 mi
1:50 PM43 °FSunny.21 mph71%29.65 "Hg10 mi
1:20 PM43 °FSunny.22 mph71%29.65 "Hg10 mi
12:50 PM45 °FSunny.20 mph66%29.65 "Hg10 mi
12:20 PM45 °FSunny.21 mph66%29.65 "Hg10 mi
11:50 AM43 °FSunny.18 mph71%29.68 "Hg10 mi
11:20 AM43 °FSunny.18 mph71%29.68 "Hg10 mi
10:50 AM41 °FSunny.21 mph76%29.68 "Hg10 mi
10:20 AM41 °FSunny.16 mph70%29.71 "Hg10 mi
9:50 AM43 °FSunny.21 mph71%29.71 "Hg10 mi
9:20 AM41 °FSunny.20 mph70%29.71 "Hg10 mi
8:50 AM39 °FSunny.18 mph75%29.71 "Hg10 mi
8:20 AM39 °FSunny.20 mph75%29.71 "Hg10 mi
7:50 AM39 °FSunny.21 mph75%29.71 "Hg10 mi
7:20 AM39 °FClear.22 mph75%29.71 "Hg10 mi
6:50 AM39 °FClear.18 mph75%29.71 "Hg10 mi
6:20 AM39 °FClear.18 mph75%29.71 "Hg10 mi
5:50 AM41 °FClear.21 mph70%29.71 "Hg10 mi
5:20 AM41 °FClear.22 mph70%29.71 "Hg10 mi
4:20 AM41 °FClear.21 mph76%29.71 "Hg10 mi
3:50 AM41 °FClear.22 mph76%29.74 "Hg10 mi
3:20 AM41 °FClear.21 mph76%29.74 "Hg10 mi
2:20 AM41 °FClear.17 mph81%29.77 "Hg10 mi
1:50 AM41 °FClear.17 mph81%29.77 "Hg10 mi
1:20 AM41 °FClear.17 mph81%29.80 "Hg10 mi
12:50 AM43 °FClear.18 mph76%29.80 "Hg10 mi
12:20 AM45 °FClear.18 mph76%29.83 "Hg10 mi
11:50 PM
Sat, Feb 6
45 °FClear.17 mph76%29.83 "Hg10 mi
11:20 PM45 °FClear.17 mph76%29.83 "Hg10 mi
9:50 PM46 °FClear.13 mph71%29.86 "Hg10 mi
9:20 PM46 °FClear.10 mph71%29.86 "Hg10 mi
8:50 PM45 °FClear.9 mph76%29.89 "Hg10 mi
8:20 PM45 °FClear.12 mph76%29.89 "Hg10 mi
7:50 PM45 °FClear.10 mph76%29.89 "Hg10 mi
7:20 PM45 °FClear.12 mph76%29.92 "Hg10 mi
6:50 PM46 °FClear.13 mph71%29.92 "Hg10 mi
6:20 PM46 °FClear.13 mph71%29.92 "Hg10 mi
Weather by CustomWeather, © 2016

See weather overviewHow to use our weather pages